K2MIT Weather Reports


Display with metric or nautical units.
time (UTC)temp
F
wind
direction
speed
MPH
gust
MPH
rain 1hr
in
rain 24hr
in
rain mn
in
humidity
%
barometer
mb
20260906223046 70 26 1.0 3.0 0.00 0.00 0.00 70 1015.9
20260906221555 70 71 2.0 6.0 0.00 0.00 0.00 73 1015.8
20260906220041 69 80 1.0 5.0 0.00 0.00 0.00 72 1015.6
20260906214541 69 39 2.0 8.0 0.00 0.00 0.00 72 1015.6
20260906213040 70 53 5.0 9.0 0.00 0.00 0.00 72 1015.5
20260906211540 70 112 4.0 8.0 0.00 0.00 0.00 70 1015.3
20260906210041 70 126 2.0 8.0 0.00 0.00 0.00 70 1015.3
20260906204539 70 70 6.0 11.0 0.00 0.00 0.00 70 1015.1
20260906203041 72 105 3.0 7.0 0.00 0.00 0.00 67 1014.9
20260906201546 74 98 2.0 6.0 0.00 0.00 0.00 64 1014.8
20260906200041 75 84 1.0 5.0 0.00 0.00 0.00 62 1014.5
20260906194539 73 80 3.0 7.0 0.00 0.00 0.00 66 1014.7
20260906193039 74 100 2.0 9.0 0.00 0.00 0.00 63 1014.6
20260906191542 74 104 3.0 8.0 0.00 0.00 0.00 64 1014.7
20260906190045 72 128 1.0 5.0 0.00 0.00 0.00 67 1014.7
20260906184544 72 94 1.0 7.0 0.00 0.00 0.00 70 1014.7
20260906183104 69 76 1.0 4.0 0.00 0.00 0.00 73 1015.0
20260906181541 70 101 4.0 10.0 0.00 0.00 0.00 71 1015.0
20260906180056 72 57 1.0 4.0 0.00 0.00 0.00 68 1015.2
20260906174541 73 129 3.0 6.0 0.00 0.00 0.00 67 1015.2
20260906173040 73 88 1.0 6.0 0.00 0.00 0.00 68 1015.2
20260906171541 72 190 3.0 9.0 0.00 0.00 0.00 68 1015.3
20260906170042 73 69 2.0 7.0 0.00 0.00 0.00 66 1015.4
20260906164541 70 184 2.0 6.0 0.00 0.00 0.00 71 1015.6
20260906163038 70 163 1.0 3.0 0.00 0.00 0.00 74 1015.6
20260906161543 67 204 0.0 2.0 0.00 0.00 0.00 77 1015.6
20260906160041 66 0 1.0 4.0 0.00 0.00 0.00 80 1015.7
20260906154547 67 109 1.0 8.0 0.00 0.00 0.00 76 1015.7
20260906153041 67 106 1.0 4.0 0.00 0.00 0.00 75 1015.7
20260906151543 68 136 1.0 4.0 0.00 0.00 0.00 73 1015.6
20260906150049 70 25 0.0 6.0 0.00 0.00 0.00 70 1015.6
20260906144543 71 310 2.0 5.0 0.00 0.00 0.00 67 1015.5
20260906143040 71 57 1.0 9.0 0.00 0.00 0.00 69 1015.5
20260906141542 70 0 1.0 9.0 0.00 0.00 0.00 69 1015.3
20260906140043 70 78 1.0 8.0 0.00 0.00 0.00 70 1015.5
20260906134548 69 322 1.0 7.0 0.00 0.00 0.00 74 1015.3
20260906133046 68 284 0.0 3.0 0.00 0.00 0.00 74 1015.2
20260906131541 70 62 1.0 3.0 0.00 0.00 0.00 75 1015.1
20260906130044 68 36 0.0 3.0 0.00 0.00 0.00 77 1015.1
20260906124540 68 74 0.0 2.0 0.00 0.00 0.00 78 1015.1
20260906123043 67 51 0.0 2.0 0.00 0.00 0.00 82 1015.1
20260906121544 66 0 0.0 2.0 0.00 0.00 0.00 83 1015.0
20260906120041 66 0 0.0 2.0 0.00 0.00 0.00 85 1014.8
20260906114551 65 313 0.0 2.0 0.00 0.00 0.00 88 1014.6
20260906113051 63 0 0.0 2.0 0.00 0.00 0.00 89 1014.5
20260906111542 63 0 0.0 0.0 0.00 0.00 0.00 90 1014.5
20260906110105 62 0 0.0 0.0 0.00 0.00 0.00 90 1014.2
20260906104538 62 5 0.0 1.0 0.00 0.00 0.00 90 1013.9
20260906103041 62 0 0.0 0.0 0.00 0.00 0.00 89 1013.4
20260906101540 62 0 0.0 0.0 0.00 0.00 0.00 89 1013.4
20260906100039 63 0 0.0 0.0 0.00 0.00 0.00 89 1013.5
20260906094541 63 0 0.0 2.0 0.00 0.00 0.00 88 1013.4
20260906093041 63 0 0.0 2.0 0.00 0.00 0.00 89 1013.2
20260906091540 63 0 0.0 2.0 0.00 0.00 0.00 89 1013.1
20260906090042 62 0 0.0 0.0 0.00 0.00 0.00 90 1013.0
20260906084538 63 0 0.0 2.0 0.00 0.00 0.00 89 1012.7
20260906083040 63 0 1.0 2.0 0.00 0.00 0.00 89 1012.6
20260906081545 63 88 1.0 2.0 0.00 0.00 0.00 89 1012.5
20260906080042 64 0 0.0 0.0 0.00 0.00 0.00 89 1012.7
20260906074548 64 67 0.0 2.0 0.00 0.00 0.00 89 1012.8
20260906073038 64 0 0.0 3.0 0.00 0.00 0.00 89 1012.6
20260906071537 64 100 1.0 5.0 0.00 0.00 0.00 89 1012.3
20260906070035 64 63 1.0 4.0 0.00 0.00 0.00 90 1012.6
20260906064538 64 0 0.0 0.0 0.00 0.00 0.00 90 1012.6
20260906063039 64 0 0.0 0.0 0.00 0.00 0.00 89 1012.5
20260906061538 64 0 0.0 0.0 0.00 0.00 0.00 89 1012.7
20260906060041 64 0 0.0 0.0 0.00 0.00 0.00 89 1013.0
20260906054539 64 0 0.0 0.0 0.00 0.00 0.00 89 1012.8
20260906053039 65 0 0.0 2.0 0.00 0.00 0.00 88 1012.9
20260906051546 65 107 1.0 5.0 0.00 0.00 0.00 87 1012.9
20260906050046 65 49 2.0 5.0 0.00 0.00 0.00 86 1012.8
20260906044539 65 65 1.0 4.0 0.00 0.00 0.00 84 1012.8
20260906043037 65 0 0.0 2.0 0.00 0.00 0.00 82 1012.8
20260906041542 65 0 0.0 2.0 0.00 0.00 0.00 82 1012.7
20260906040045 65 0 0.0 0.0 0.00 0.00 0.00 81 1012.5
20260906034538 65 0 0.0 0.0 0.00 0.00 0.00 81 1012.5
20260906033045 65 0 0.0 2.0 0.00 0.00 0.00 80 1012.6
20260906031537 66 273 0.0 1.0 0.00 0.00 0.00 79 1012.6
20260906030040 67 0 0.0 0.0 0.00 0.00 0.00 76 1012.2
20260906024538 68 84 0.0 2.0 0.00 0.00 0.00 73 1012.4
20260906023037 69 0 0.0 2.0 0.00 0.00 0.00 72 1012.2
20260906021536 69 348 1.0 3.0 0.00 0.00 0.00 70 1012.2
20260906020039 69 329 1.0 2.0 0.00 0.00 0.00 70 1012.2
20260906014540 69 0 0.0 2.0 0.00 0.00 0.00 69 1012.0
20260906013039 70 351 1.0 4.0 0.00 0.00 0.00 68 1012.0
20260906011542 70 337 1.0 3.0 0.00 0.00 0.00 67 1011.9
20260906010042 70 19 0.0 4.0 0.00 0.00 0.00 66 1011.7
20260906004541 71 9 0.0 4.0 0.00 0.00 0.00 65 1011.5
20260906003040 71 309 1.0 3.0 0.00 0.00 0.00 64 1011.3
20260906001541 71 352 1.0 5.0 0.00 0.00 0.00 63 1011.2
20260906000041 72 5 0.0 4.0 0.00 0.00 0.00 63 1011.1
20260905234542 73 0 0.0 2.0 0.00 0.00 0.00 62 1010.7
20260905233045 74 300 0.0 3.0 0.00 0.00 0.00 59 1010.7
20260905231540 74 340 1.0 6.0 0.00 0.00 0.00 60 1010.7
20260905230050 76 0 0.0 4.0 0.00 0.00 0.00 56 1010.7
20260905224557 77 27 1.0 3.0 0.00 0.00 0.00 55 1010.5